C/2021 QM45 ( PanSTARRS )

Japanese version
Home page
Updated on July 9, 2022

---------------------------------------------------------------------

* Profile

Discovery Date August 17, 2021
Magnitude 22.4 mag
Discoverer Pan-STARRS 1 telescope (Haleakala)

* Pictures

* Orbital Elements

Epoch 2022 Aug. 9.0 TT = JDT 2459800.5                                          
T 2022 Aug. 13.43342 TT                                 Rudenko                 
q   2.7732686            (2000.0)            P               Q                  
z  +0.0028542      Peri.   72.80393     +0.37736234     -0.92534299             
 +/-0.0000017      Node   354.58863     +0.63128145     +0.28593956             
e   0.9920846      Incl.   22.82229     +0.67755546     +0.24895564             
From 87 observations 2021 Aug. 4-2022 June 30, mean residual 0".4.              

* Magnitudes Graph

        m1 = 8.5 + 5 log d + 15.0 log r

---------------------------------------------------------------------

The orbital elements are published on M.P.E.C. 2022-N12.
The magnitudes graphs are made with Comet for Windows.

---------------------------------------------------------------------

Copyright(C) Seiichi Yoshida (comet@aerith.net). All rights reserved.